Overview Statistics Trail Chart Weather Telemetry Raw packets
 

This is the latest recevied weather packets stored in our database for station/object JF7BTK-10. If no packets are shown the sender has not sent any weather packets the latest 10 day(s).

<< 8 9 10 11 12 13 14 >>
Time Temp. Humidity Pressure Rain* Wind** Luminosity Snow
1788561651 22.22° C 82% 1009.6 hPa 0 mm - - -
1788561051 20.56° C 88% 1009.4 hPa 0 mm - - -
1788560889 20.56° C 89% 1009.4 hPa 0 mm - - -
1788560152 19.44° C 98% 1009.2 hPa 0 mm - - -
1788559987 19.44° C 99% 1009.2 hPa 0 mm - - -
1788559853 19.44° C 99% 1009.3 hPa 0 mm - - -
1788559252 18.33° C 99% 1009.3 hPa 0 mm - - -
1788559089 18.33° C 99% 1009.2 hPa 0 mm - - -
1788558952 18.33° C 99% 1009.2 hPa 0 mm - - -
1788558652 17.78° C 99% 1009.2 hPa 0 mm - - -
1788558352 16.67° C 99% 1009.2 hPa 0 mm - - -
1788558188 16.67° C 99% 1009 hPa 0 mm - - -
1788558051 16.67° C 99% 1009 hPa 0 mm - - -
1788557752 16.67° C 99% 1009 hPa 0 mm - - -
1788557450 16.67° C 99% 1009 hPa 0 mm - - -
1788557289 16.67° C 99% 1009.1 hPa 0 mm - - -
1788557152 16.67° C 99% 1008.9 hPa 0 mm - - -
1788556551 16.67° C 99% 1009 hPa 0 mm - - -
1788556388 16.67° C 99% 1009 hPa 0 mm - - -
1788555951 15.56° C 99% 1008.9 hPa 0 mm - - -
1788555488 15.56° C 99% 1009 hPa 0 mm - - -
1788555352 15.56° C 99% 1009 hPa 0 mm - - -
1788555052 15.56° C 99% 1008.9 hPa 0 mm - - -
1788554752 15.56° C 99% 1008.9 hPa 0 mm - - -
1788554588 15.56° C 99% 1008.9 hPa 0 mm - - -

* Rain latest hour (hover to see other rain measurements)
** Current wind speed in m/s (hover to see current wind gust speed)